• în România
  • Lista ţărilor
  • Pe 7 zile
  • Temperatura apei
  • Hartă satelitară
  • Meteo pe hartă
  • Widget-uri
  • user-avatar
    Intrare

    Meteo pe oră la Sunny Beach

    Astăzi, 18 Octombrie, Miercuri

    Timp Temperatura Precipitaţii Vânt Presiune Umiditate
    00:00 +16°C° 0 mm 1 m/s 742 mmHg 53%
    01:00 +15°C° 0 mm 0 m/s 742 mmHg 52%
    02:00 +14°C° 0 mm 0 m/s 742 mmHg 52%
    03:00 +14°C° 0 mm 0 m/s 742 mmHg 52%
    04:00 +14°C° 0 mm 0 m/s 741 mmHg 52%
    05:00 +13°C° 0 mm 0 m/s 741 mmHg 53%
    06:00 +14°C° 0 mm 0 m/s 741 mmHg 51%
    07:00 +15°C° 0 mm 0 m/s 741 mmHg 49%
    08:00 +16°C° 0 mm 0 m/s 741 mmHg 48%
    09:00 +20°C° 0 mm 1 m/s 741 mmHg 42%
    10:00 +22°C° 0 mm 1 m/s 741 mmHg 36%
    11:00 +25°C° 0 mm 1 m/s 741 mmHg 30%
    12:00 +25°C° 0 mm 1 m/s 741 mmHg 29%
    13:00 +26°C° 0 mm 1 m/s 741 mmHg 28%
    14:00 +26°C° 0 mm 2 m/s 740 mmHg 27%
    15:00 +25°C° 0 mm 2 m/s 740 mmHg 33%
    16:00 +23°C° 0 mm 2 m/s 739 mmHg 38%
    17:00 +21°C° 0 mm 2 m/s 739 mmHg 44%
    18:00 +19°C° 0 mm 2 m/s 739 mmHg 47%
    19:00 +18°C° 0 mm 2 m/s 739 mmHg 51%
    20:00 +16°C° 0 mm 1 m/s 739 mmHg 55%
    21:00 +16°C° 0 mm 1 m/s 739 mmHg 55%
    22:00 +16°C° 0 mm 1 m/s 739 mmHg 55%
    23:00 +15°C° 0 mm 1 m/s 739 mmHg 55%

    Mâine, 19 Octombrie, Joi

    Timp Temperatura Precipitaţii Vânt Presiune Umiditate
    00:00 +15°C° 0 mm 1 m/s 738 mmHg 56%
    01:00 +15°C° 0 mm 1 m/s 738 mmHg 56%
    02:00 +13°C° 0 mm 0 m/s 738 mmHg 57%
    03:00 +13°C° 0 mm 0 m/s 738 mmHg 57%
    04:00 +13°C° 0 mm 0 m/s 738 mmHg 57%
    05:00 +13°C° 0 mm 0 m/s 737 mmHg 57%
    06:00 +14°C° 0 mm 0 m/s 738 mmHg 55%
    07:00 +14°C° 0 mm 0 m/s 738 mmHg 53%
    08:00 +15°C° 0 mm 0 m/s 738 mmHg 52%
    09:00 +18°C° 0 mm 0 m/s 738 mmHg 46%
    10:00 +22°C° 0 mm 1 m/s 738 mmHg 40%
    11:00 +24°C° 0 mm 1 m/s 738 mmHg 34%
    12:00 +24°C° 0 mm 1 m/s 738 mmHg 33%
    13:00 +25°C° 0 mm 1 m/s 738 mmHg 31%
    14:00 +26°C° 0 mm 1 m/s 737 mmHg 30%
    15:00 +24°C° 0 mm 2 m/s 737 mmHg 34%
    16:00 +23°C° 0 mm 2 m/s 737 mmHg 39%
    17:00 +21°C° 0 mm 2 m/s 736 mmHg 44%
    18:00 +19°C° 0 mm 2 m/s 737 mmHg 47%
    19:00 +19°C° 0 mm 1 m/s 737 mmHg 51%
    20:00 +18°C° 0 mm 1 m/s 737 mmHg 54%
    21:00 +18°C° 0 mm 1 m/s 737 mmHg 55%
    22:00 +16°C° 0 mm 1 m/s 737 mmHg 57%
    23:00 +16°C° 0 mm 1 m/s 737 mmHg 58%

    Poimâine, 20 Octombrie, Vineri

    Timp Temperatura Precipitaţii Vânt Presiune Umiditate
    00:00 +16°C° 0 mm 1 m/s 737 mmHg 60%
    01:00 +15°C° 0 mm 1 m/s 737 mmHg 61%
    02:00 +15°C° 0 mm 1 m/s 737 mmHg 63%
    03:00 +15°C° 0 mm 1 m/s 736 mmHg 64%
    04:00 +14°C° 0 mm 1 m/s 736 mmHg 65%
    05:00 +14°C° 0 mm 1 m/s 736 mmHg 66%
    06:00 +15°C° 0 mm 1 m/s 737 mmHg 64%
    07:00 +16°C° 0 mm 1 m/s 737 mmHg 61%
    08:00 +16°C° 0 mm 1 m/s 737 mmHg 59%
    09:00 +19°C° 0 mm 1 m/s 737 mmHg 51%
    10:00 +22°C° 0 mm 1 m/s 737 mmHg 44%
    11:00 +24°C° 0 mm 1 m/s 737 mmHg 36%
    12:00 +24°C° 0 mm 1 m/s 737 mmHg 34%
    13:00 +25°C° 0 mm 1 m/s 737 mmHg 32%
    14:00 +26°C° 0 mm 1 m/s 737 mmHg 30%
    15:00 +24°C° 0 mm 1 m/s 737 mmHg 33%
    16:00 +23°C° 0 mm 1 m/s 737 mmHg 37%
    17:00 +22°C° 0 mm 1 m/s 737 mmHg 41%
    18:00 +21°C° 0 mm 1 m/s 737 mmHg 43%
    19:00 +19°C° 0 mm 1 m/s 737 mmHg 45%
    20:00 +18°C° 0 mm 1 m/s 737 mmHg 47%
    21:00 +18°C° 0 mm 1 m/s 737 mmHg 47%
    22:00 +18°C° 0 mm 1 m/s 737 mmHg 48%
    23:00 +16°C° 0 mm 1 m/s 737 mmHg 48%

    21 Octombrie, Sâmbătă

    Timp Temperatura Precipitaţii Vânt Presiune Umiditate
    00:00 +16°C° 0 mm 1 m/s 737 mmHg 48%
    01:00 +16°C° 0 mm 1 m/s 737 mmHg 49%
    02:00 +15°C° 0 mm 1 m/s 737 mmHg 50%
    03:00 +15°C° 0 mm 1 m/s 737 mmHg 51%
    04:00 +15°C° 0 mm 1 m/s 737 mmHg 52%
    05:00 +14°C° 0 mm 1 m/s 737 mmHg 53%
    06:00 +15°C° 0 mm 1 m/s 737 mmHg 52%
    07:00 +16°C° 0 mm 1 m/s 738 mmHg 51%
    08:00 +18°C° 0 mm 1 m/s 738 mmHg 51%
    09:00 +20°C° 0 mm 1 m/s 738 mmHg 46%
    10:00 +22°C° 0 mm 1 m/s 738 mmHg 41%
    11:00 +24°C° 0 mm 1 m/s 738 mmHg 36%
    12:00 +24°C° 0 mm 1 m/s 738 mmHg 35%
    13:00 +25°C° 0 mm 1 m/s 738 mmHg 34%
    14:00 +25°C° 0 mm 2 m/s 737 mmHg 33%
    15:00 +24°C° 0 mm 2 m/s 737 mmHg 38%
    16:00 +23°C° 0 mm 2 m/s 737 mmHg 42%
    17:00 +20°C° 0 mm 2 m/s 737 mmHg 47%
    18:00 +20°C° 0 mm 1 m/s 737 mmHg 51%
    19:00 +19°C° 0 mm 1 m/s 737 mmHg 54%
    20:00 +18°C° 0 mm 1 m/s 738 mmHg 58%
    21:00 +16°C° 0 mm 1 m/s 738 mmHg 59%
    22:00 +16°C° 0 mm 1 m/s 738 mmHg 60%
    23:00 +16°C° 0 mm 1 m/s 738 mmHg 61%

    22 Octombrie, Duminică

    Timp Temperatura Precipitaţii Vânt Presiune Umiditate
    00:00 +15°C° 0 mm 1 m/s 738 mmHg 63%
    01:00 +15°C° 0 mm 1 m/s 738 mmHg 65%
    02:00 +14°C° 0 mm 1 m/s 738 mmHg 68%
    03:00 +14°C° 0 mm 1 m/s 738 mmHg 70%
    04:00 +14°C° 0 mm 2 m/s 738 mmHg 73%
    05:00 +13°C° 0 mm 2 m/s 738 mmHg 76%
    06:00 +14°C° 0 mm 2 m/s 738 mmHg 75%
    07:00 +15°C° 0 mm 2 m/s 738 mmHg 74%
    08:00 +15°C° 0 mm 2 m/s 738 mmHg 73%
    09:00 +17°C° 0 mm 3 m/s 738 mmHg 67%
    10:00 +18°C° 0 mm 3 m/s 739 mmHg 61%
    11:00 +20°C° 0 mm 3 m/s 739 mmHg 54%
    12:00 +20°C° 0 mm 3 m/s 738 mmHg 53%
    13:00 +21°C° 0 mm 4 m/s 738 mmHg 52%
    14:00 +21°C° 0 mm 4 m/s 738 mmHg 51%
    15:00 +20°C° 0 mm 4 m/s 738 mmHg 57%
    16:00 +19°C° 0 mm 3 m/s 737 mmHg 64%
    17:00 +17°C° 0 mm 3 m/s 737 mmHg 71%
    18:00 +16°C° 0 mm 3 m/s 737 mmHg 78%
    19:00 +14°C° 0 mm 3 m/s 737 mmHg 84%
    20:00 +13°C° 0 mm 3 m/s 737 mmHg 91%
    21:00 +13°C° 0 mm 3 m/s 737 mmHg 93%
    22:00 +14°C° 0 mm 2 m/s 737 mmHg 94%
    23:00 +13°C° 0 mm 2 m/s 737 mmHg 96%

    23 Octombrie, Luni

    Timp Temperatura Precipitaţii Vânt Presiune Umiditate
    00:00 +13°C° 0 mm 2 m/s 737 mmHg 96%
    01:00 +13°C° 0 mm 2 m/s 737 mmHg 96%
    02:00 +13°C° 0 mm 2 m/s 736 mmHg 96%
    03:00 +13°C° 0 mm 2 m/s 736 mmHg 96%
    04:00 +13°C° 0 mm 2 m/s 736 mmHg 96%
    05:00 +13°C° 0 mm 2 m/s 736 mmHg 96%
    06:00 +12°C° 0 mm 3 m/s 736 mmHg 94%
    07:00 +13°C° 0 mm 3 m/s 736 mmHg 92%
    08:00 +13°C° 0 mm 3 m/s 736 mmHg 89%
    09:00 +16°C° 0 mm 3 m/s 736 mmHg 82%
    10:00 +17°C° 0 mm 4 m/s 736 mmHg 75%
    11:00 +18°C° 0 mm 4 m/s 736 mmHg 68%
    12:00 +18°C° 0 mm 4 m/s 735 mmHg 67%
    13:00 +18°C° 0 mm 4 m/s 735 mmHg 66%
    14:00 +18°C° 0 mm 4 m/s 735 mmHg 64%
    15:00 +18°C° 0 mm 4 m/s 735 mmHg 69%
    16:00 +17°C° 0 mm 4 m/s 735 mmHg 73%
    17:00 +15°C° 0 mm 4 m/s 735 mmHg 78%
    18:00 +14°C° 0 mm 4 m/s 735 mmHg 82%
    19:00 +14°C° 0 mm 3 m/s 735 mmHg 87%
    20:00 +13°C° 0 mm 3 m/s 735 mmHg 91%
    21:00 +13°C° 0 mm 3 m/s 736 mmHg 92%
    22:00 +13°C° 0 mm 2 m/s 736 mmHg 93%
    23:00 +13°C° 0 mm 2 m/s 736 mmHg 94%
    Arată mai mult